Location: Aufkirchen
(47.9603°N, 11.3653°E)
Time: 08:11:06
(UTC+01:00)

Transit 4A - Pass Details

Date: 01 December 2020
Orbit: 864 x 981 km, 66.8° (Epoch: 17 January)

Event Time Altitude Azimuth Distance (km) Brightness Sun altitude
Rises 12:48:20 0° 314° (NW) 3,691 10.7 19.4°
Reaches altitude 10° 12:52:16 10° 338° (NNW) 2,740 9.9 19.3°
Maximum altitude 12:55:47 15° 11° (N) 2,386 9.6 19.2°
Drops below altitude 10° 12:59:17 10° 45° (NE) 2,720 9.9 19.0°
Sets 13:03:10 0° 68° (ENE) 3,648 10.7 18.9°
